This is the latest recevied weather packets stored in our database for station/object NA9VY-8. If no packets are shown the sender has not sent any weather packets the latest 10 day(s).
| Time | Temp. | Humidity | Pressure | Rain* | Wind** | Luminosity | Snow |
|---|---|---|---|---|---|---|---|
| 1777941958 | 21.67° C | 56% | 1007 hPa | 0 mm | - | 0 W/m² | - |
| 1777941655 | 21.67° C | 56% | 1007.2 hPa | 0 mm | - | 0 W/m² | - |
| 1777941352 | 21.67° C | 55% | 1007.2 hPa | 0 mm | - | 0 W/m² | - |
| 1777941050 | 22.22° C | 55% | 1007 hPa | 0 mm | - | 2 W/m² | - |
| 1777940750 | 22.22° C | 55% | 1007.2 hPa | 0 mm | - | 7 W/m² | - |
| 1777940449 | 22.22° C | 55% | 1007.3 hPa | 0 mm | - | 12 W/m² | - |
| 1777940146 | 22.78° C | 54% | 1007.2 hPa | 0 mm | - | 17 W/m² | - |
| 1777939843 | 22.78° C | 55% | 1007.3 hPa | 0 mm | - | 23 W/m² | - |
| 1777939540 | 22.78° C | 53% | 1007.2 hPa | 0 mm | - | 29 W/m² | - |
| 1777939238 | 22.78° C | 55% | 1007.2 hPa | 0 mm | - | 34 W/m² | - |
| 1777938934 | 22.78° C | 54% | 1007.4 hPa | 0 mm | - | 39 W/m² | - |
| 1777938631 | 22.78° C | 54% | 1007.2 hPa | 0 mm | - | 42 W/m² | - |
| 1777938328 | 22.78° C | 54% | 1007.3 hPa | 0 mm | - | 42 W/m² | - |
| 1777938025 | 22.78° C | 53% | 1007.5 hPa | 0 mm | - | 43 W/m² | - |
| 1777937720 | 22.78° C | 53% | 1007.4 hPa | 0 mm | - | 44 W/m² | - |
| 1777937418 | 23.33° C | 52% | 1007.8 hPa | 0 mm | - | 49 W/m² | - |
| 1777937115 | 23.33° C | 52% | 1007.7 hPa | 0 mm | - | 60 W/m² | - |
| 1777936812 | 23.33° C | 51% | 1007.8 hPa | 0 mm | - | 66 W/m² | - |
| 1777936509 | 23.33° C | 51% | 1007.9 hPa | 0 mm | - | 57 W/m² | - |
| 1777936205 | 23.33° C | 50% | 1007.9 hPa | 0 mm | - | 62 W/m² | - |
| 1777935901 | 23.89° C | 50% | 1007.6 hPa | 0 mm | - | 79 W/m² | - |
| 1777935600 | 23.89° C | 50% | 1007.9 hPa | 0 mm | - | 92 W/m² | - |
| 1777935297 | 23.89° C | 52% | 1008 hPa | 0 mm | - | 83 W/m² | - |
| 1777934994 | 23.89° C | 52% | 1008.4 hPa | 0 mm | - | 82 W/m² | - |
| 1777934690 | 23.89° C | 52% | 1008.4 hPa | 0 mm | - | 87 W/m² | - |
* Rain latest hour (hover to see other rain measurements)
** Current wind speed in m/s (hover to see current wind gust speed)